User: anonymous   Login
Location: Unspecified
(0.0000°N, 0.0000°E)
Time: 08:43:37
(UTC+02:00)
Language:

ARIANE 5 R/B - Orbit

View from above orbital plane
View from above orbital plane
View from above satellite
View from above satellite

Ground track
Ground track

The orbit data is extracted from the following two-line orbital elements,

1 28787U 05028B   18113.36814311 -.00000264 +00000-0 -91411-3 0  9991
2 28787 006.8890 281.9967 7161940 070.1683 348.1532 02.26572312105114
Epoch (UTC): 23 April 2018 08:50:07
Eccentricity: 0.7161940
inclination: 6.8890°
perigee height: 571 km
apogee height: 35645 km
right ascension of ascending node: 281.9967°
argument of perigee: 70.1683°
revolutions per day: 2.26572312
mean anomaly at epoch: 348.1532°
orbit number at epoch: 10511

The dashed part of the orbit path shows where the satellite is in the earth's shadow,  

DLR